Weather History for MMCV - December, 2012

Change the Weather History Date:

Wednesday, December 19, 2012

  Actual Average Record
Temperature  
Mean Temperature 72 °F -  
Max Temperature 92 °F 74 °F 92 °F (2012)
Min Temperature 53 °F 52 °F 39 °F (1996)
Cooling Degree Days 8    
Growing Degree Days 22 (Base 50)    
Moisture  
Dew Point 62 °F    
Average Humidity 62    
Maximum Humidity 100    
Minimum Humidity 30    
Precipitation  
Precipitation 0.00 in - - ()
Sea Level Pressure  
Sea Level Pressure 29.78 in    
Wind  
Wind Speed 9 mph ()    
Max Wind Speed 23 mph    
Max Gust Speed 33 mph    
Visibility 7.3 miles    
Events      
Averages and records for this station are not official NWS values.
T = Trace of Precipitation, MM = Missing Value Source: Averaged Metar Reports

Daily Weather History Graph

Daily Weather History Graph

Search for Another Location

Airport or City:

Trip Planner

Search our weather history database for the weather conditions in past years. The results will help you decide how hot, cold, wet, or windy it might be!

Date:

Astronomy

Dec. 19, 2012 Rise Set
Actual Time 7:12 AM CST 5:53 PM CST
Civil Twilight 6:48 AM CST 6:18 PM CST
Nautical Twilight 6:20 AM CST 6:46 PM CST
Astronomical Twilight 5:52 AM CST 7:14 PM CST
Moon 12:05 PM CST (12/19) No Moon Set
Length of Visible Light 11h 30m
Length of Day
10h 40m
Waxing Crescent, 45% of the Moon is Illuminated
Dec 19
Waxing Crescent
Dec 19
First Quarter
Dec 28
Full
Jan 4
Last Quarter
Jan 11
New

Hourly Weather History & Observations

Time (CST) Temp. Heat Index Dew Point Humidity Pressure Visibility Wind Dir Wind Speed Gust Speed Precip Events Conditions
5:45 AM 55 °F - 55 °F 100% 29.83 in 4 mi Calm Calm - -  
6:07 AM 69.8 °F - 62.6 °F 78% 29.81 in 5.0 mi South 9.2 mph 21.9 mph N/A   Clear
6:43 AM 69.8 °F - 62.6 °F 78% 29.81 in 5.0 mi SSE 13.8 mph - N/A   Clear
7:49 AM 69.8 °F - 62.6 °F 78% 29.82 in 8.0 mi SE 9.2 mph - N/A   Clear
8:42 AM 73.4 °F - 62.6 °F 69% 29.84 in 8.0 mi SSE 17.3 mph - N/A   Clear
8:50 AM 62 °F - 61 °F 97% 29.89 in 6 mi Calm Calm - -  
9:45 AM 78.8 °F - 60.8 °F 54% 29.84 in 10.0 mi South 23.0 mph - N/A   Clear
10:41 AM 78.8 °F - 62.6 °F 57% 29.82 in 10.0 mi SSE 21.9 mph - N/A   Clear
11:50 AM 82 °F - 62 °F 41% 29.85 in 6 mi North 2.2 mph - -  
11:52 AM 80.6 °F 81.8 °F 62.6 °F 54% 29.79 in 10.0 mi South 20.7 mph 33.4 mph N/A   Clear
12:44 PM 84.2 °F 84.4 °F 60.8 °F 45% 29.75 in 10.0 mi SSE 17.3 mph - N/A   Clear
1:42 PM 84.2 °F 85.0 °F 62.6 °F 48% 29.72 in 8.0 mi South 17.3 mph - N/A   Clear
2:48 PM 86.0 °F 86.1 °F 60.8 °F 43% 29.72 in 8.0 mi SSE 17.3 mph - N/A   Partly Cloudy
2:50 PM 91 °F - 64 °F 30% 29.74 in 6 mi Calm Calm - -  
3:46 PM 86.0 °F 86.6 °F 62.6 °F 45% 29.70 in 8.0 mi SSE 8.1 mph - N/A   Scattered Clouds
4:42 PM 84.2 °F 85.0 °F 62.6 °F 48% 29.70 in 8.0 mi South 13.8 mph - N/A   Scattered Clouds
5:44 PM 82.4 °F 83.4 °F 62.6 °F 51% 29.69 in 8.0 mi South 12.7 mph - N/A   Scattered Clouds
5:50 PM 81 °F - 63 °F 44% 29.72 in 6 mi Calm Calm - -  
6:42 PM 80.6 °F 81.8 °F 62.6 °F 54% 29.70 in 8.0 mi South 11.5 mph - N/A   Partly Cloudy
7:46 PM 77.0 °F - 62.6 °F 61% 29.74 in 8.0 mi South 11.5 mph - N/A   Partly Cloudy
8:43 PM 78.8 °F - 64.4 °F 61% 29.75 in 8.0 mi South 15.0 mph - N/A   Partly Cloudy
8:50 PM 68 °F - 62 °F 77% 29.78 in 4 mi Calm Calm - -  
9:42 PM 75.2 °F - 66.2 °F 73% 29.80 in 8.0 mi SSW 6.9 mph - N/A   Partly Cloudy
11:45 PM 64 °F - 63 °F 94% 29.85 in 4 mi Calm Calm - -